Voltar ao catálogo

STARLINK-34569

AtivoComunicaçõesVLEO
NORAD 64610·PAYLOAD·🇺🇸 United States

Lançado Jun 25, 2025 de Cape Canaveral Space Force Station

Loading…

Próximas Passagens (próximas 24 horas)

TLE

AtualizadoSource: CelesTrak SupGP

Época: Sep 15, 2026, 03:22 UTC

1 64610C 25137S   26258.14076389 -.00025661  00000+0 -75782-3 0  2587
2 64610  53.1572 172.5967 0001163  82.5271  82.5433 15.34417486    14

Acompanhe STARLINK-34569 em tempo real com AllMySat

Download on the App Store